Weather History for LHBP - October, 2013

Change the Weather History Date:

Wednesday, October 9, 2013

  Actual Average Record
Temperature  
Mean Temperature 50 °F -  
Max Temperature 60 °F 55 °F 78 °F (1997)
Min Temperature 41 °F 38 °F 32 °F (2002)
Degree Days  
Heating Degree Days 14    
Moisture  
Dew Point 42 °F    
Average Humidity 68    
Maximum Humidity 100    
Minimum Humidity 54    
Precipitation  
Precipitation 0.00 in - - ()
Sea Level Pressure  
Sea Level Pressure 30.14 in    
Wind  
Wind Speed 5 mph ()    
Max Wind Speed 10 mph    
Max Gust Speed -    
Visibility 5.8 miles    
Events Rain    
Averages and records for this station are not official NWS values.
T = Trace of Precipitation, MM = Missing Value Source: Averaged Metar Reports

Daily Weather History Graph

Daily Weather History Graph

Search for Another Location

Airport or City:

Trip Planner

Search our weather history database for the weather conditions in past years. The results will help you decide how hot, cold, wet, or windy it might be!

Date:

Astronomy

Oct. 09, 2013 Rise Set
Actual Time 6:52 AM CEST 6:06 PM CEST
Civil Twilight 6:22 AM CEST 6:37 PM CEST
Nautical Twilight 5:46 AM CEST 7:12 PM CEST
Astronomical Twilight 5:10 AM CEST 7:48 PM CEST
Moon 11:46 AM CEST (10/9) 9:06 PM CEST (10/9)
Length of Visible Light 12h 15m
Length of Day
11h 13m
Waxing Crescent, 22% of the Moon is Illuminated
Oct 9
Waxing Crescent
Oct 12
First Quarter
Oct 19
Full
Oct 27
Last Quarter
Nov 3
New

Hourly Weather History & Observations

Time (CEST) Temp. Windchill Dew Point Humidity Pressure Visibility Wind Dir Wind Speed Gust Speed Precip Events Conditions
12:00 AM 51.8 °F - 35.6 °F 54% 30.24 in - Variable 1.2 mph - N/A   Clear
12:30 AM 51.8 °F - 35.6 °F 54% 30.24 in - Variable 3.5 mph - N/A   Clear
1:00 AM 42.8 °F 41.1 °F 35.6 °F 76% 30.24 in - Variable 3.5 mph - N/A   Clear
1:30 AM 42.8 °F 41.1 °F 35.6 °F 76% 30.24 in - Variable 3.5 mph - N/A   Clear
2:00 AM 41.0 °F 38.0 °F 35.6 °F 81% 30.24 in - North 4.6 mph - N/A   Clear
2:30 AM 44.6 °F 43.1 °F 37.4 °F 76% 30.24 in - Variable 3.5 mph - N/A   Clear
3:00 AM 44.6 °F 42.2 °F 35.6 °F 71% 30.24 in - North 4.6 mph - N/A   Clear
3:30 AM 44.6 °F 43.1 °F 37.4 °F 76% 30.21 in - Variable 3.5 mph - N/A   Clear
4:00 AM 42.8 °F 41.1 °F 37.4 °F 81% 30.21 in - Variable 3.5 mph - N/A   Clear
4:30 AM 46.4 °F 44.3 °F 37.4 °F 71% 30.21 in - North 4.6 mph - N/A   Clear
5:00 AM 46.4 °F 43.5 °F 37.4 °F 71% 30.21 in - North 5.8 mph - N/A   Clear
5:30 AM 46.4 °F 45.2 °F 39.2 °F 76% 30.21 in - Variable 3.5 mph - N/A   Clear
6:00 AM 46.4 °F - 37.4 °F 71% 30.21 in - Variable 2.3 mph - N/A   Clear
6:30 AM 46.4 °F - 37.4 °F 71% 30.18 in - Variable 1.2 mph - N/A   Clear
7:00 AM 51.8 °F - 37.4 °F 58% 30.18 in - Variable 3.5 mph - N/A   Clear
7:30 AM 51.8 °F - 37.4 °F 58% 30.18 in - ENE 5.8 mph - N/A   Clear
8:00 AM 51.8 °F - 37.4 °F 58% 30.18 in - ENE 8.1 mph - N/A   Clear
8:30 AM 51.8 °F - 37.4 °F 58% 30.18 in - East 5.8 mph - N/A   Clear
9:00 AM 53.6 °F - 39.2 °F 58% 30.18 in - East 6.9 mph - N/A   Clear
9:30 AM 53.6 °F - 39.2 °F 58% 30.18 in - East 5.8 mph - N/A   Clear
10:00 AM 55.4 °F - 39.2 °F 54% 30.18 in - East 8.1 mph - N/A   Clear
10:30 AM 57.2 °F - 42.8 °F 59% 30.18 in - East 6.9 mph - N/A   Clear
11:00 AM 57.2 °F - 42.8 °F 59% 30.18 in - ESE 9.2 mph - N/A   Clear
11:30 AM 59.0 °F - 44.6 °F 59% 30.18 in - ESE 9.2 mph - N/A   Clear
12:00 PM 57.2 °F - 46.4 °F 67% 30.15 in 6.2 mi ESE 9.2 mph - N/A   Mostly Cloudy
12:30 PM 57.2 °F - 46.4 °F 67% 30.15 in 6.2 mi ESE 6.9 mph - N/A   Overcast
1:00 PM 57.2 °F - 46.4 °F 67% 30.15 in 6.2 mi SE 6.9 mph - N/A   Mostly Cloudy
1:30 PM 59.0 °F - 46.4 °F 63% 30.12 in 6.2 mi ESE 8.1 mph - N/A   Mostly Cloudy
2:00 PM 59.0 °F - 46.4 °F 63% 30.12 in - ESE 9.2 mph - N/A   Clear
2:30 PM 60.8 °F - 46.4 °F 59% 30.12 in - SE 10.4 mph - N/A   Clear
3:00 PM 59.0 °F - 44.6 °F 59% 30.09 in 6.2 mi ESE 6.9 mph - N/A   Mostly Cloudy
3:30 PM 60.8 °F - 46.4 °F 59% 30.09 in 6.2 mi East 8.1 mph - N/A   Mostly Cloudy
4:00 PM 60.8 °F - 46.4 °F 59% 30.09 in - ESE 10.4 mph - N/A   Clear
4:30 PM 60.8 °F - 46.4 °F 59% 30.06 in 6.2 mi ESE 9.2 mph - N/A   Mostly Cloudy
5:00 PM 59.0 °F - 46.4 °F 63% 30.06 in 6.2 mi ESE 10.4 mph - N/A   Mostly Cloudy
5:30 PM 59.0 °F - 46.4 °F 63% 30.06 in 5.0 mi ESE 8.1 mph - N/A   Mostly Cloudy
6:00 PM 59.0 °F - 44.6 °F 59% 30.06 in 6.2 mi ESE 8.1 mph - N/A   Mostly Cloudy
6:30 PM 57.2 °F - 44.6 °F 63% 30.06 in 6.2 mi ESE 6.9 mph - N/A   Mostly Cloudy
7:00 PM 57.2 °F - 44.6 °F 63% 30.06 in 6.2 mi ESE 5.8 mph - N/A   Mostly Cloudy
7:30 PM 57.2 °F - 44.6 °F 63% 30.06 in 6.2 mi ESE 4.6 mph - N/A   Mostly Cloudy
8:00 PM 55.4 °F - 46.4 °F 72% 30.06 in 6.2 mi ESE 5.8 mph - N/A   Mostly Cloudy
8:30 PM 55.4 °F - 46.4 °F 72% 30.04 in 6.2 mi SE 5.8 mph - N/A   Mostly Cloudy
9:00 PM 55.4 °F - 46.4 °F 72% 30.04 in 6.2 mi SE 5.8 mph - N/A Rain Light Rain
9:30 PM 55.4 °F - 48.2 °F 77% 30.04 in 5.0 mi SE 6.9 mph - N/A Rain Light Rain
10:00 PM 53.6 °F - 50.0 °F 88% 30.04 in 5.0 mi SSW 4.6 mph - N/A Rain Light Rain
10:30 PM 53.6 °F - 50.0 °F 88% 30.04 in 5.0 mi South 4.6 mph - N/A Rain Light Rain
11:00 PM 51.8 °F - 51.8 °F 100% 30.04 in 4.3 mi Variable 2.3 mph - N/A Rain Light Rain
11:30 PM 51.8 °F - 51.8 °F 100% 30.04 in 3.7 mi Calm Calm - N/A   Overcast